Location: Newark
(45.5000°N, 11.4167°E)
Time: 22:10:37
(UTC+00:00)

Vanguard 2 - Pass Details

Date: 28 August 2019
Orbit: 554 x 2937 km, 32.9° (Epoch: 18 September)

Event Time Altitude Azimuth Distance (km) Brightness Sun altitude
Rises 15:24:02 0° 259° (W) 4,000 12.5 26.3°
Reaches altitude 10° 15:27:17 10° 243° (WSW) 3,378 12.5 25.7°
Maximum altitude 15:33:24 21° 199° (SSW) 3,216 11.3 24.7°
Drops below altitude 10° 15:41:42 10° 158° (SSE) 4,735 11.5 23.3°
Sets 15:47:32 0° 145° (SE) 6,159 11.9 22.3°
